Location: Andrest
(43.3200°N, 0.0641°E)
Time: 21:59:17
(UTC+00:00)

Cosmos 371 Rocket - Pass Details

Date: 01 December 2020
Orbit: 684 x 698 km, 74.0° (Epoch: 20 January)

Event Time Altitude Azimuth Distance (km) Brightness Sun altitude
Rises 18:22:56 0° 346° (NNW) 3,090 6.7 -20.8°
Reaches altitude 10° 18:25:24 10° 354° (N) 2,167 5.8 -21.3°
Enters shadow 18:27:59 27° 15° (NNE) 1,329 4.5 -21.7°
